Location: Arbon
(43.0005°N, 0.7472°E)
Time: 03:32:33
(UTC+00:00)

Cosmos 1809 Rocket - Pass Details

Date: 07 August 2020
Orbit: 942 x 962 km, 82.5° (Epoch: 27 September)

Event Time Altitude Azimuth Distance (km) Brightness Sun altitude
Rises 03:05:41 0° 350° (N) 3,619 8.0 -17.4°
Reaches altitude 10° 03:08:10 10° 350° (N) 2,672 7.2 -17.0°
Maximum altitude 03:14:17 84° 264° (W) 957 4.4 -16.2°
Drops below altitude 10° 03:20:24 10° 176° (S) 2,666 6.4 -15.4°
Enters shadow 03:22:00 - 176° (S) 3,276 6.9 -15.2°
